Location: New Frontier Mobile Home Park
(32.8448°N, 116.9675°W)
Time: 20:44:23
(UTC+00:00)

Cosmos 1869 - Pass Details

Date: 14 July 2020
Orbit: 520 x 563 km, 82.5° (Epoch: 13 August)

Event Time Altitude Azimuth Distance (km) Brightness Sun altitude
Rises 05:06:39 0° 353° (N) 2,731 7.7 -22.5°
Reaches altitude 10° 05:08:49 10° 352° (N) 1,839 6.7 -22.8°
Enters shadow 05:12:50 85° 288° (WNW) 565 3.3 -23.4°
